Temp
16 16 16 17 17 18 18 17 18 18 18 18 16 13 11 14 13 14 14 13 13 12 11 11 11 11 10 10 11 10 10 11 11 11 11 10 10 10 11 10 10 9 9 9
16 16 17 18 18 18 19 19 18 18 18 17 16 16 14 13 14 13 14 14 13 13 12 12 12 12 11 11 11 11 11 11 11 12 10 10 10 10 10 10 9 9 9 9
16 17 17 18 19 19 19 20 19 19 18 16 14 16 15 14 15 15 14 15 14 14 14 13 12 12 11 11 12 11 11 11 11 11 11 11 11 10 10 10 10 9 9 9
17 17 18 18 19 19 19 20 19 19 18 16 16 15 17 17 17 16 15 14 15 14 14 14 13 13 12 12 12 11 12 12 12 12 12 11 11 10 10 10 10 10 10 10
17 18 18 19 19 19 19 19 20 18 15 15 12 14 16 18 18 17 16 15 15 15 15 14 14 14 13 12 12 12 12 12 12 12 11 11 11 11 11 11 11 10 10 10
17 18 18 19 19 19 19 19 19 19 17 12 12 11 15 16 17 17 16 16 15 16 15 15 15 14 13 13 12 12 12 12 12 12 12 11 11 11 11 11 10 10 10 10
17 17 18 18 19 19 19 19 19 16 13 10 13 11 15 14 15 15 16 14 15 16 16 16 15 15 14 13 13 13 13 13 13 12 12 11 11 11 11 11 10 10 11 9
17 17 18 19 19 19 19 19 19 17 11 12 14 14 16 15 16 15 16 16 15 13 16 16 15 15 14 14 13 13 13 13 13 13 12 12 11 11 11 10 11 11 11 10
17 18 19 19 19 19 19 19 19 19 20 15 14 15 15 15 14 15 16 17 17 17 17 16 16 15 14 14 13 13 13 13 13 13 12 12 11 11 11 11 12 11 11 10
17 17 18 19 20 19 19 19 19 19 17 16 13 15 16 16 15 17 18 17 17 17 17 16 16 15 14 14 14 13 13 13 13 13 13 12 12 12 12 12 11 11 11 11
18 18 18 19 19 20 19 19 19 19 19 15 12 15 17 16 17 17 18 17 17 17 16 16 16 15 15 14 14 13 13 14 13 13 13 13 12 12 12 12 11 11 11 10
18 18 18 19 19 19 20 20 19 19 19 19 18 17 18 17 16 16 16 17 17 17 17 16 16 15 15 14 14 13 13 14 13 13 13 13 13 13 12 11 11 10 10 10
18 18 18 18 19 19 20 19 19 19 20 20 17 17 18 17 16 15 16 17 18 18 17 16 16 16 15 14 14 14 15 14 14 14 14 14 13 13 12 11 11 10 10 9
17 17 17 17 18 19 19 20 20 20 19 20 19 17 17 16 17 16 18 18 18 18 18 18 17 16 16 16 16 15 15 14 14 14 14 14 13 12 11 11 11 10 10 9
17 17 17 17 18 18 19 19 20 20 19 19 18 18 18 17 15 17 18 18 18 18 17 17 17 17 16 16 16 15 15 14 14 14 14 14 13 12 11 11 10 10 9 9
16 16 16 17 17 17 18 19 19 20 20 20 19 18 19 17 17 18 17 18 18 18 17 17 17 16 16 16 15 15 14 14 14 14 14 13 12 12 11 11 10 10 9 9
15 16 16 16 17 17 17 18 19 19 20 20 20 20 19 18 18 19 18 17 17 17 18 17 18 17 16 16 15 15 14 14 14 13 14 13 12 12 11 10 10 9 9 8
14 15 15 15 16 14 17 18 19 19 19 19 20 20 19 18 18 18 18 17 17 17 17 18 18 17 16 16 15 15 14 14 13 13 13 12 12 11 10 10 9 9 8 8
14 15 15 15 15 16 18 16 17 18 18 19 19 19 19 19 19 18 17 16 16 16 16 16 17 17 17 16 15 15 14 14 13 13 13 12 11 11 10 10 9 9 8 8
14 14 14 15 14 13 12 17 17 18 17 17 17 17 18 18 18 17 17 17 17 16 15 16 16 16 16 15 15 14 14 14 13 12 12 12 11 11 10 9 9 9 8 8
11 11 12 11 8 12 12 15 17 16 12 14 14 15 16 17 17 17 17 17 16 17 15 15 16 16 15 14 13 14 14 13 12 12 12 11 11 10 10 9 8 8 7 7
9 9 10 9 7 9 10 12 11 10 10 12 13 13 13 13 14 16 16 16 16 16 16 15 15 15 14 13 13 14 14 13 12 12 11 11 10 10 9 8 8 8 7 7
8 8 8 8 9 10 10 9 10 10 10 10 11 12 12 13 13 13 16 16 16 15 15 15 14 14 13 12 13 13 13 13 12 11 11 10 10 9 9 8 7 7 7 7
8 8 8 7 8 9 10 9 10 10 10 10 11 11 12 12 13 12 13 15 15 15 13 13 13 13 12 11 11 10 11 11 10 10 10 9 9 8 8 7 7 6 6 6
8 9 10 11 11 9 10 11 10 9 10 10 10 10 11 12 12 13 13 13 14 13 12 12 12 12 11 11 11 11 9 9 8 7 7 7 8 8 7 6 6 6 6 6
10 10 9 9 9 9 10 11 11 10 10 9 10 10 10 11 11 12 12 13 14 13 12 12 12 11 11 11 11 11 10 11 8 6 7 8 8 7 6 5 5 5 6 6
Height
3167 3168 3165 3164 3168 3166 3163 3163 3163 3167 3166 3168 3162 3159 3168 3168 3172 3175 3170 3170 3172 3172 3173 3174 3176 3178 3179 3180 3181 3184 3185 3184 3186 3187 3187 3188 3187 3188 3187 3187 3186 3186 3185 3184
3166 3163 3161 3161 3168 3165 3164 3166 3165 3164 3163 3166 3161 3160 3163 3168 3169 3170 3171 3167 3169 3170 3171 3172 3175 3177 3177 3178 3180 3182 3184 3185 3185 3185 3186 3187 3187 3187 3186 3186 3186 3184 3183 3181
3161 3159 3160 3162 3162 3164 3163 3163 3161 3163 3163 3163 3166 3163 3166 3171 3166 3165 3164 3165 3166 3167 3168 3170 3173 3175 3176 3176 3178 3181 3183 3184 3185 3185 3186 3187 3186 3185 3184 3184 3184 3183 3181 3178
3158 3158 3158 3158 3159 3160 3161 3162 3162 3161 3159 3163 3164 3159 3158 3159 3160 3160 3161 3163 3165 3165 3166 3168 3171 3173 3174 3176 3177 3180 3182 3183 3184 3185 3185 3185 3185 3184 3183 3183 3182 3181 3179 3175
3154 3155 3156 3156 3156 3157 3159 3159 3161 3158 3159 3165 3169 3169 3155 3151 3149 3154 3156 3158 3161 3163 3164 3166 3169 3173 3173 3174 3177 3179 3181 3182 3183 3184 3183 3183 3184 3184 3182 3181 3180 3178 3176 3173
3150 3151 3153 3154 3154 3155 3156 3158 3159 3156 3158 3162 3176 3177 3155 3153 3153 3155 3154 3157 3159 3157 3158 3163 3168 3172 3173 3173 3175 3178 3179 3181 3182 3182 3182 3182 3182 3181 3180 3178 3176 3176 3175 3174
3148 3147 3148 3150 3150 3152 3154 3156 3156 3158 3158 3162 3164 3169 3159 3157 3151 3148 3148 3150 3147 3159 3157 3159 3165 3168 3170 3171 3173 3176 3177 3179 3180 3180 3180 3180 3180 3179 3178 3178 3176 3174 3174 3172
3146 3145 3143 3144 3146 3148 3150 3152 3153 3155 3159 3161 3162 3158 3151 3156 3154 3149 3145 3148 3148 3128 3156 3158 3162 3166 3167 3169 3170 3173 3176 3178 3178 3178 3178 3179 3179 3179 3177 3176 3173 3171 3171 3170
3141 3137 3139 3141 3140 3144 3144 3147 3150 3149 3147 3152 3157 3154 3154 3154 3156 3150 3144 3146 3148 3153 3155 3158 3161 3161 3163 3165 3167 3171 3174 3175 3176 3176 3176 3177 3177 3176 3175 3173 3171 3169 3168 3166
3139 3138 3134 3134 3135 3140 3141 3146 3147 3146 3146 3149 3152 3149 3147 3146 3149 3147 3148 3146 3148 3153 3157 3159 3161 3163 3164 3166 3166 3168 3170 3171 3172 3174 3174 3175 3174 3172 3171 3170 3169 3168 3167 3165
3136 3138 3131 3133 3134 3136 3139 3140 3143 3143 3144 3143 3151 3149 3142 3144 3143 3145 3146 3147 3149 3153 3156 3159 3161 3163 3164 3164 3164 3165 3167 3168 3170 3172 3172 3172 3170 3169 3168 3168 3167 3166 3165 3164
3132 3133 3132 3131 3129 3133 3133 3134 3138 3138 3139 3137 3139 3149 3144 3145 3146 3149 3148 3149 3151 3153 3155 3157 3158 3160 3161 3161 3161 3162 3163 3166 3168 3170 3170 3169 3168 3167 3167 3167 3166 3166 3164 3163
3128 3128 3128 3129 3129 3127 3129 3131 3133 3135 3135 3133 3136 3138 3138 3141 3147 3148 3143 3149 3152 3152 3153 3154 3155 3156 3157 3157 3157 3159 3161 3163 3165 3167 3167 3166 3165 3165 3165 3165 3164 3163 3162 3161
3124 3125 3127 3129 3129 3128 3127 3127 3128 3131 3132 3133 3134 3135 3139 3139 3143 3144 3146 3145 3148 3149 3149 3150 3151 3153 3154 3155 3156 3158 3159 3161 3162 3163 3163 3163 3163 3164 3164 3163 3162 3161 3160 3159
3122 3122 3124 3123 3124 3124 3124 3124 3124 3125 3128 3130 3134 3131 3134 3135 3139 3145 3144 3144 3144 3144 3145 3146 3147 3149 3150 3151 3152 3154 3155 3158 3159 3160 3161 3161 3162 3162 3162 3162 3161 3160 3159 3157
3119 3119 3120 3120 3120 3119 3119 3119 3119 3121 3122 3125 3129 3127 3129 3126 3127 3132 3136 3138 3139 3140 3141 3142 3143 3145 3146 3148 3149 3151 3153 3155 3156 3158 3158 3159 3160 3161 3160 3160 3158 3157 3156 3154
3117 3117 3118 3117 3120 3119 3118 3116 3116 3117 3119 3120 3120 3124 3123 3124 3130 3130 3130 3132 3134 3137 3138 3139 3140 3141 3142 3144 3146 3147 3149 3149 3151 3153 3154 3156 3157 3158 3157 3156 3155 3155 3154 3153
3116 3117 3117 3117 3119 3119 3114 3116 3116 3116 3116 3117 3118 3120 3120 3124 3125 3123 3126 3128 3131 3133 3135 3135 3136 3137 3137 3139 3141 3143 3144 3146 3147 3150 3151 3152 3154 3154 3154 3154 3153 3152 3150 3149
3115 3113 3112 3113 3116 3115 3112 3114 3111 3111 3114 3109 3112 3114 3116 3116 3117 3121 3124 3127 3128 3128 3130 3130 3131 3133 3133 3134 3136 3138 3140 3141 3142 3145 3147 3148 3150 3151 3151 3151 3150 3149 3147 3146
3106 3106 3110 3109 3111 3114 3113 3107 3105 3103 3108 3106 3108 3111 3112 3111 3113 3117 3120 3123 3126 3125 3126 3127 3127 3128 3128 3128 3130 3133 3135 3136 3138 3140 3144 3146 3148 3149 3148 3147 3144 3143 3142 3141
3105 3105 3108 3109 3111 3111 3105 3100 3099 3099 3113 3105 3105 3107 3110 3111 3114 3115 3118 3121 3122 3123 3120 3123 3124 3123 3122 3123 3125 3129 3130 3131 3134 3135 3138 3141 3143 3142 3143 3142 3142 3140 3137 3134
3105 3110 3113 3114 3117 3116 3105 3104 3101 3109 3107 3105 3104 3106 3109 3110 3112 3114 3114 3116 3117 3119 3119 3118 3120 3119 3119 3118 3119 3120 3123 3125 3127 3132 3134 3136 3137 3139 3140 3139 3139 3137 3134 3130
3108 3108 3109 3112 3109 3104 3104 3107 3111 3105 3105 3107 3103 3106 3108 3106 3111 3112 3111 3114 3115 3115 3116 3117 3118 3117 3117 3115 3113 3113 3118 3119 3121 3124 3127 3130 3135 3138 3137 3134 3135 3133 3130 3125
3104 3107 3104 3107 3105 3106 3108 3109 3106 3105 3105 3105 3104 3109 3104 3106 3107 3112 3112 3111 3111 3112 3112 3113 3114 3113 3113 3113 3110 3103 3116 3115 3115 3120 3124 3128 3131 3131 3130 3127 3126 3124 3123 3120
3099 3101 3095 3092 3093 3097 3100 3100 3105 3107 3104 3106 3103 3104 3111 3110 3108 3109 3109 3108 3109 3109 3109 3110 3110 3109 3110 3110 3108 3106 3097 3096 3093 3111 3119 3124 3125 3123 3122 3123 3122 3119 3118 3115
3094 3094 3093 3090 3089 3088 3095 3095 3100 3100 3101 3105 3107 3102 3109 3111 3108 3105 3102 3103 3104 3104 3104 3107 3106 3105 3106 3105 3104 3105 3106 3102 3101 3109 3112 3116 3112 3114 3115 3115 3116 3116 3114 3110
Wind_Speed
12 16 22 17 15 15 16 12 11 8 1 4 4 13 10 17 16 13 13 13 9 13 17 22 16 18 20 20 17 11 9 9 2 2 4 5 7 10 11 12 15 17 19 20
19 25 20 12 16 13 9 8 4 18 7 8 10 5 5 7 11 19 14 15 13 9 14 11 14 13 17 19 17 7 7 6 3 3 2 4 6 9 12 15 16 18 20 21
20 20 19 20 20 17 11 16 5 13 11 8 8 5 10 6 9 14 16 14 14 13 11 12 12 12 14 12 9 9 8 5 1 1 1 3 7 10 15 17 18 20 23 23
17 18 21 20 22 17 13 13 6 10 11 11 15 9 21 18 17 19 20 21 15 17 13 11 11 10 13 14 12 13 10 7 3 3 2 3 7 11 16 19 19 19 21 21
26 19 15 20 22 19 17 15 16 11 20 23 35 11 12 13 14 20 22 23 20 18 18 14 17 11 9 12 13 11 10 8 5 3 5 8 10 11 17 20 20 21 20 15
26 23 22 21 22 21 20 14 17 7 5 9 21 11 17 19 15 13 21 24 24 21 18 15 10 10 9 9 16 14 10 7 7 5 6 9 12 15 17 22 22 20 16 10
19 22 20 19 21 17 20 16 14 2 2 4 9 8 18 21 24 20 18 20 30 25 18 16 15 12 9 13 9 10 12 9 7 8 10 11 14 17 19 20 19 17 14 9
21 19 20 21 23 22 19 19 16 4 5 5 15 11 12 11 12 10 9 14 18 26 19 16 17 17 11 12 9 13 14 14 9 10 11 13 15 18 20 17 18 16 12 7
14 25 22 19 25 20 22 23 19 23 25 7 8 10 8 11 8 7 5 8 13 14 18 16 18 18 14 14 13 17 18 19 12 12 14 16 16 18 17 17 15 12 11 10
21 27 24 18 16 16 19 16 19 19 2 1 3 7 12 15 25 18 6 15 14 19 18 17 16 18 16 17 20 21 22 22 18 15 15 17 18 16 16 15 10 9 8 9
25 24 29 23 16 16 15 19 19 17 16 5 4 6 9 16 13 10 18 14 9 19 25 21 19 20 20 22 23 24 22 17 13 14 15 11 11 12 12 9 7 6 7 8
20 25 24 25 22 21 20 18 20 15 14 13 17 4 3 10 15 9 20 17 8 13 19 15 17 25 27 24 25 24 22 14 10 11 11 10 10 8 4 2 3 3 6 9
18 18 17 22 26 23 18 13 21 20 20 24 7 6 18 9 14 21 23 20 8 8 12 13 13 15 17 21 23 22 15 10 12 11 10 9 8 3 2 2 3 6 9 12
8 16 15 17 22 24 23 20 19 19 23 20 10 20 18 13 14 19 19 14 8 6 8 9 10 13 14 14 12 12 13 15 15 12 10 10 6 4 3 5 7 10 12 14
21 24 27 24 21 27 27 23 20 25 23 25 11 12 7 8 13 16 18 15 10 7 11 14 12 11 11 11 12 14 17 15 16 15 12 10 8 5 5 6 7 9 12 15
13 20 22 26 25 24 26 25 23 17 18 21 16 14 10 2 9 13 20 16 11 7 3 7 14 15 15 15 16 15 16 17 17 17 14 11 8 7 8 9 10 12 13 16
9 14 15 24 21 22 25 24 24 23 17 16 21 17 17 17 11 11 27 24 15 7 8 4 4 12 16 16 16 17 17 20 20 19 15 11 11 11 10 11 12 13 14 17
13 13 19 15 19 9 28 23 23 23 20 20 17 16 14 19 15 5 14 17 15 12 9 11 10 13 18 21 20 21 21 22 23 21 17 16 16 13 13 13 14 15 14 18
22 24 17 13 22 24 26 7 11 13 13 20 23 17 17 17 16 14 11 12 5 16 16 13 14 16 17 22 23 22 22 24 26 23 21 21 19 15 14 14 15 15 16 20
12 25 20 11 12 8 24 14 9 14 4 6 12 15 14 13 13 9 5 7 6 6 13 15 18 19 20 18 25 23 24 25 28 26 24 22 19 17 16 15 15 13 15 21
10 3 2 12 5 9 30 14 14 0 6 15 15 12 10 8 8 8 9 9 11 13 14 18 19 24 24 21 22 22 23 26 29 29 26 24 20 20 17 17 15 15 15 20
14 4 3 6 10 23 22 15 17 19 5 14 16 17 15 9 0 6 5 7 9 13 12 20 24 26 25 27 24 23 24 26 32 30 28 24 22 19 16 16 16 18 20 21
8 8 5 7 5 8 19 14 25 13 15 14 6 16 17 6 6 8 9 9 10 8 12 17 21 25 29 27 20 22 23 27 31 29 26 23 18 14 19 25 22 24 24 22
10 22 21 17 18 15 14 19 11 10 8 11 12 24 16 10 14 12 13 15 16 12 14 20 22 24 22 22 27 22 25 24 24 21 18 11 6 19 31 30 24 19 24 24
7 6 14 28 33 29 26 27 27 4 4 8 5 1 16 21 24 24 21 17 11 13 15 20 23 21 19 22 26 23 16 30 17 15 15 13 13 17 28 23 23 23 26 26
9 9 11 13 13 24 15 29 24 15 5 9 14 9 19 18 19 15 18 20 20 15 20 21 22 20 22 23 23 23 20 23 30 13 18 17 20 23 26 27 21 20 23 22
Wind_Direction
254 253 261 267 231 281 284 205 311 338 4 237 48 101 305 198 193 199 200 209 235 223 208 219 223 201 218 241 253 266 292 266 290 85 57 23 6 355 0 359 345 343 328 324
238 246 261 278 243 292 274 292 29 324 262 339 173 26 6 222 190 189 203 213 233 235 229 238 228 203 215 238 254 269 284 262 292 43 19 337 333 341 344 348 337 336 333 314
236 250 256 265 276 275 295 294 281 309 269 147 179 114 41 272 223 210 194 242 241 249 232 252 241 252 224 246 257 288 306 288 216 247 271 317 329 338 333 332 333 339 339 327
249 248 261 275 279 265 262 302 297 340 356 60 3 315 287 280 215 200 203 201 248 236 235 258 254 257 228 242 259 275 290 284 243 229 251 291 318 325 320 331 341 341 345 343
245 251 263 272 273 277 296 293 301 8 87 35 4 346 299 300 224 206 196 212 223 234 232 249 248 269 244 234 246 268 279 281 257 224 272 296 310 313 318 330 335 340 346 357
252 258 257 269 277 269 274 283 289 299 65 65 319 278 280 296 299 257 224 214 212 229 232 260 246 275 219 244 248 266 291 290 270 252 259 283 306 315 319 332 333 331 337 340
250 254 257 263 275 266 272 261 264 303 2 195 156 202 278 330 301 280 227 235 211 225 228 241 238 254 251 225 247 268 286 306 268 277 280 283 297 317 314 319 315 317 321 325
250 255 238 237 241 242 258 268 247 255 175 163 167 205 284 347 322 131 238 219 238 200 219 238 255 241 250 258 255 267 281 294 279 285 294 299 303 307 306 306 311 310 324 329
276 263 267 260 251 229 244 259 271 280 289 133 188 228 224 260 200 268 188 185 196 208 228 235 245 230 244 245 234 258 270 279 284 286 296 306 300 295 297 297 303 311 330 329
257 267 279 282 226 229 236 257 271 286 344 76 240 186 199 220 203 204 299 190 186 193 206 216 231 220 227 235 240 250 261 272 281 284 293 296 286 285 291 300 311 316 327 334
246 252 281 291 289 217 229 244 255 277 280 199 142 250 243 222 220 167 155 155 168 187 203 214 221 217 226 233 239 250 254 269 280 276 284 273 274 282 291 309 323 336 347 354
239 245 256 275 266 286 235 237 248 237 269 258 103 110 193 222 244 204 180 171 173 163 194 209 211 213 220 228 232 241 256 270 263 265 260 281 287 291 312 333 11 6 12 358
238 258 265 262 273 269 255 227 250 264 264 270 183 189 161 200 191 239 192 184 238 190 182 198 206 213 224 232 241 250 254 231 233 247 269 293 297 309 329 342 347 345 351 351
238 246 262 273 253 260 298 228 238 247 271 279 286 148 172 205 181 177 196 216 189 187 196 207 197 206 218 228 238 237 229 225 229 250 272 289 287 279 308 333 344 341 339 337
256 252 250 262 271 268 280 286 267 233 235 263 201 162 238 247 180 198 215 230 229 223 219 227 220 214 220 226 236 240 238 237 239 249 262 274 266 270 294 312 319 325 326 330
260 253 252 259 270 274 285 279 282 280 239 248 239 219 250 200 225 202 210 227 218 199 185 220 232 221 223 229 236 241 238 238 242 242 245 246 236 246 273 298 314 320 323 321
247 237 253 260 269 278 283 268 271 286 269 264 241 263 267 190 218 240 213 220 208 221 240 295 320 241 233 228 235 245 238 235 238 235 238 240 234 253 275 289 304 308 309 312
292 284 276 290 274 254 259 270 262 274 275 279 277 251 222 174 193 116 215 227 240 229 232 268 288 299 240 228 225 231 234 235 236 235 229 227 236 251 269 286 299 304 305 311
277 269 257 275 294 285 266 279 303 274 260 237 259 281 213 196 201 208 167 161 205 237 250 270 286 294 285 241 227 227 231 234 234 233 228 229 237 253 272 288 296 297 307 318
257 249 252 241 248 275 338 262 262 234 157 133 111 119 158 174 175 171 220 270 283 293 245 256 283 290 294 275 235 231 231 234 234 233 229 233 247 262 277 283 280 286 303 317
16 128 183 289 278 282 9 300 284 53 51 108 94 115 110 162 187 219 250 291 310 273 252 240 274 285 291 281 265 233 238 237 238 234 229 237 249 258 266 272 274 283 297 315
323 358 101 129 224 248 334 354 31 13 17 107 105 95 78 46 79 220 256 281 302 285 284 242 256 277 285 278 275 232 242 243 238 235 230 237 246 260 267 274 279 289 301 314
297 299 243 291 306 291 284 319 327 20 19 310 129 52 50 41 1 328 292 298 289 279 257 260 272 276 272 268 257 244 250 252 241 233 228 233 250 272 271 275 282 302 303 309
338 294 303 292 273 267 276 265 322 327 337 350 298 267 285 328 329 300 312 302 301 284 258 262 272 274 265 258 265 259 263 265 253 223 215 211 223 294 283 270 284 291 296 308
270 300 306 294 285 270 283 271 273 192 7 319 177 47 288 286 290 294 303 297 290 264 242 258 268 265 262 262 268 282 264 248 217 178 197 198 290 293 280 274 287 282 300 309
285 265 304 305 276 263 267 258 233 234 203 295 307 283 289 293 285 296 284 286 282 269 253 252 260 261 266 271 276 280 260 281 326 314 229 233 244 267 286 284 280 289 294 298